Location: Harwich
(41.7160°N, 69.9939°W)
Time: 18:48:15
(UTC+01:00)

Transit 2A - All Passes

Search period start: 07 February 2023 00:00
Search period end: 17 February 2023 00:00
Orbit: 593 x 963 km, 66.7° (Epoch: 07 February)

Date Brightness Start Highest point End Pass type
(mag) Time Alt. Az. Time Alt. Az. Time Alt. Az.
07 Feb - 00:10:29 10° NW 00:12:10 11° NNW 00:13:53 10° NNW visible
07 Feb - 05:25:29 10° N 05:30:37 27° NE 05:35:53 10° ESE night (unlit)
07 Feb - 07:08:09 10° NW 07:14:18 66° WSW 07:20:35 10° SSE night (unlit)
07 Feb - 20:08:44 10° SE 20:10:43 12° ESE 20:12:45 10° ENE daylight
07 Feb - 21:48:09 10° SW 21:52:57 77° WNW 21:58:21 10° NNE daylight
07 Feb - 23:34:18 10° WNW 23:37:12 15° NW 23:40:15 10° N visible
08 Feb - 04:51:17 10° N 04:55:47 21° NE 05:00:26 10° E night (unlit)
08 Feb - 06:33:34 10° NNW 06:39:48 90° WSW 06:46:11 10° SSE night (unlit)
08 Feb - 08:18:48 10° WNW 08:22:15 15° WSW 08:25:44 10° SW night (unlit)
08 Feb - 21:13:41 10° SSW 21:18:26 72° ESE 21:23:46 10° NE daylight
08 Feb - 22:58:39 10° W 23:02:18 20° NW 23:06:14 10° N daylight
09 Feb - 04:17:12 10° N 04:20:54 16° NE 04:24:41 10° ENE night (unlit)
09 Feb - 05:59:04 10° NNW 06:05:14 67° ENE 06:11:35 10° SE night (unlit)
09 Feb - 07:43:18 10° WNW 07:47:59 22° WSW 07:52:44 10° SSW night (unlit)
09 Feb - 20:39:26 10° S 20:44:01 47° ESE 20:49:06 10° NE daylight
09 Feb - 22:23:18 10° WSW 22:27:28 26° NW 22:32:02 10° N daylight
10 Feb - 03:43:22 10° N 03:45:56 13° NNE 03:48:33 10° ENE visible
10 Feb - 05:24:38 10° NNW 05:30:37 49° NE 05:36:46 10° SE night (unlit)
10 Feb - 07:08:14 10° NW 07:13:40 32° WSW 07:19:10 10° S night (unlit)
10 Feb - 20:05:28 10° S 20:09:40 31° ESE 20:14:16 10° NE daylight
10 Feb - 21:48:10 10° WSW 21:52:42 36° NW 21:57:44 10° NNE daylight
11 Feb - 04:50:16 10° NNW 04:55:56 37° NE 05:01:45 10° ESE night (unlit)
11 Feb - 06:33:23 10° NW 06:39:17 45° WSW 06:45:16 10° S night (unlit)
11 Feb - 19:31:50 10° SSE 19:35:23 21° ESE 19:39:11 10° ENE daylight
11 Feb - 21:13:16 10° SW 21:18:02 51° NW 21:23:21 10° NNE daylight
11 Feb - 23:01:04 10° NW 23:02:43 11° NNW 23:04:24 10° NNW daylight
12 Feb - 04:15:57 10° NNW 04:21:10 28° NE 04:26:32 10° ESE visible
12 Feb - 05:58:40 10° NW 06:04:50 63° WSW 06:11:06 10° SSE night (unlit)
12 Feb - 18:58:51 10° SE 19:01:09 13° ESE 19:03:33 10° ENE daylight
12 Feb - 20:38:34 10° SW 20:43:25 74° WNW 20:48:53 10° NNE daylight
12 Feb - 22:24:50 10° WNW 22:27:44 15° NW 22:30:47 10° N daylight
13 Feb - 03:41:43 10° N 03:46:21 22° NE 03:51:06 10° E visible
13 Feb - 05:24:04 10° NNW 05:30:20 87° WSW 05:36:43 10° SSE night (unlit)
13 Feb - 07:09:27 10° WNW 07:12:45 15° WSW 07:16:03 10° SW night (unlit)
13 Feb - 20:04:04 10° SSW 20:08:54 75° ESE 20:14:19 10° NNE daylight
13 Feb - 21:49:09 10° W 21:52:49 19° NW 21:56:44 10° N daylight
14 Feb - 03:07:36 10° N 03:11:27 17° NE 03:15:23 10° ENE visible
14 Feb - 04:49:32 10° NNW 04:55:46 69° ENE 05:02:07 10° SE night (unlit)
14 Feb - 06:33:52 10° WNW 06:38:29 22° WSW 06:43:07 10° SSW night (unlit)
14 Feb - 19:29:48 10° S 19:34:27 50° ESE 19:39:39 10° NE daylight
14 Feb - 21:13:45 10° W 21:17:58 26° NW 21:22:33 10° N daylight
15 Feb - 02:33:41 10° N 02:36:29 13° NNE 02:39:19 10° ENE visible
15 Feb - 04:15:05 10° NNW 04:21:08 51° NE 04:27:19 10° SE visible
15 Feb - 05:58:45 10° NW 06:04:09 31° WSW 06:09:35 10° SSW night (unlit)
15 Feb - 18:55:46 10° S 19:00:05 33° ESE 19:04:49 10° NE daylight
15 Feb - 20:38:37 10° WSW 20:43:11 35° NW 20:48:15 10° NNE daylight
16 Feb - 02:00:36 10° NNE 02:01:26 10° NNE 02:02:16 10° NE visible
16 Feb - 03:40:42 10° NNW 03:46:27 38° NE 03:52:19 10° ESE visible
16 Feb - 05:23:53 10° NW 05:29:46 43° WSW 05:35:42 10° S night (unlit)
16 Feb - 18:22:04 10° SSE 18:25:47 22° ESE 18:29:46 10° ENE daylight
16 Feb - 20:03:40 10° SW 20:08:29 49° NW 20:13:51 10° NNE daylight
16 Feb - 21:51:35 10° NW 21:53:12 11° NNW 21:54:52 10° NNW daylight
